LEAS Weather Reports


time (UTC)temp
C
wind
direction
speed
KPH
gust
KPH
rain 1hr
cm
rain 24hr
cm
rain mn
cm
humidity
%
barometer
mb
20260508080004 13 0 3.2 0.0 0.00 0.00 0.00 82 1007.0
20260508074503 13 0 3.2 0.0 0.00 0.00 0.00 82 1007.0
20260508073004 12 0 1.6 0.0 0.00 0.00 0.00 87 1007.0
20260508071504 12 0 1.6 0.0 0.00 0.00 0.00 87 1007.0
20260508070005 12 220 4.8 0.0 0.00 0.00 0.00 87 1007.0
20260508063004 12 220 8.0 0.0 0.00 0.00 0.00 87 1007.0
20260508060004 12 210 4.8 0.0 0.00 0.00 0.00 87 1007.0
20260508054504 12 210 4.8 0.0 0.00 0.00 0.00 87 1007.0
20260508050004 12 230 8.0 0.0 0.00 0.00 0.00 87 1007.0
20260508044504 12 230 8.0 0.0 0.00 0.00 0.00 87 1007.0
20260508043004 12 240 4.8 0.0 0.00 0.00 0.00 93 1008.0
20260508041505 12 240 4.8 0.0 0.00 0.00 0.00 93 1008.0
20260508034504 12 220 4.8 0.0 0.00 0.00 0.00 93 1008.0
20260508033004 12 0 3.2 0.0 0.00 0.00 0.00 93 1008.0
20260508031504 12 0 3.2 0.0 0.00 0.00 0.00 93 1008.0
20260508030004 12 200 1.6 0.0 0.00 0.00 0.00 93 1008.0
20260508024504 12 200 1.6 0.0 0.00 0.00 0.00 93 1008.0
20260508020004 12 0 3.2 0.0 0.00 0.00 0.00 100 1009.0
20260508014504 12 0 3.2 0.0 0.00 0.00 0.00 100 1009.0
20260508011504 12 240 4.8 0.0 0.00 0.00 0.00 93 1009.0
20260508010004 12 0 3.2 0.0 0.00 0.00 0.00 93 1009.0
20260508000004 12 180 4.8 0.0 0.00 0.00 0.00 93 1010.0
20260507230005 12 160 3.2 0.0 0.00 0.00 0.00 93 1010.0
20260507224504 12 160 3.2 0.0 0.00 0.00 0.00 93 1010.0
20260507223004 12 0 3.2 0.0 0.00 0.00 0.00 100 1010.0
20260507214504 12 0 3.2 0.0 0.00 0.00 0.00 93 1010.0
20260507213004 13 250 8.0 0.0 0.00 0.00 0.00 93 1010.0
20260507211504 13 250 8.0 0.0 0.00 0.00 0.00 93 1010.0
20260507203004 15 270 9.7 0.0 0.00 0.00 0.00 82 1010.0
20260507191503 16 80 4.8 0.0 0.00 0.00 0.00 82 1009.0
20260507181504 16 90 12.9 0.0 0.00 0.00 0.00 77 1009.0
20260507180005 16 50 8.0 0.0 0.00 0.00 0.00 77 1009.0
20260507174504 16 50 8.0 0.0 0.00 0.00 0.00 77 1009.0
20260507173005 16 40 4.8 0.0 0.00 0.00 0.00 77 1009.0
20260507171504 16 40 4.8 0.0 0.00 0.00 0.00 77 1009.0
20260507170004 16 50 4.8 0.0 0.00 0.00 0.00 77 1009.0
20260507163004 16 80 12.9 0.0 0.00 0.00 0.00 77 1009.0
20260507161504 16 80 12.9 0.0 0.00 0.00 0.00 77 1009.0
20260507160005 17 100 12.9 0.0 0.00 0.00 0.00 63 1009.0
20260507151505 17 80 14.5 0.0 0.00 0.00 0.00 63 1009.0
20260507150005 17 70 1.6 0.0 0.00 0.00 0.00 72 1009.0
20260507144504 17 70 1.6 0.0 0.00 0.00 0.00 72 1009.0
20260507141504 17 60 12.9 0.0 0.00 0.00 0.00 67 1009.0
20260507140005 17 50 1.6 0.0 0.00 0.00 0.00 67 1009.0
20260507133004 17 60 12.9 0.0 0.00 0.00 0.00 67 1010.0
20260507131504 17 60 12.9 0.0 0.00 0.00 0.00 67 1010.0
20260507130004 17 50 14.5 0.0 0.00 0.00 0.00 67 1010.0
20260507121504 17 60 12.9 0.0 0.00 0.00 0.00 72 1010.0
20260507120005 17 30 12.9 0.0 0.00 0.00 0.00 72 1010.0
20260507114504 17 30 12.9 0.0 0.00 0.00 0.00 72 1010.0
20260507113004 17 60 9.7 0.0 0.00 0.00 0.00 72 1011.0
20260507111506 17 60 9.7 0.0 0.00 0.00 0.00 72 1011.0
20260507110005 17 120 9.7 0.0 0.00 0.00 0.00 67 1011.0
20260507100005 16 100 12.9 0.0 0.00 0.00 0.00 72 1011.0
20260507094504 16 100 12.9 0.0 0.00 0.00 0.00 72 1011.0
20260507091504 15 120 11.3 0.0 0.00 0.00 0.00 72 1011.0
20260507090005 13 110 12.9 0.0 0.00 0.00 0.00 76 1011.0
20260507084504 13 110 12.9 0.0 0.00 0.00 0.00 76 1011.0